Terug naar catalogus

STARLINK-37970

ActiefCommunicatieSSO
NORAD 69706·PAYLOAD·🇺🇸 United States

Gelanceerd Jun 28, 2026 vanaf Vandenberg Space Force Base

Loading…

Volgende Passages (komende 24 uur)

TLE

VersSource: CelesTrak SupGP

Epoch: Sep 15, 2026, 04:21 UTC

1 69706C 26147C   26258.18173611 -.00061373  00000+0 -19054-2 0  2589
2 69706  97.2839 294.5492 0001171  85.2877 299.1397 15.33465670    11

Volg STARLINK-37970 in realtime met AllMySat

Download on the App Store